Location: Newark
(44.2003°N, 3.2583°E)
Time: 18:24:53
(UTC+00:00)

OTV 5 (USA 277) - Visible Passes

Search period start: 21 October 2019 00:00
Search period end: 31 October 2019 00:00
Orbit: 310 x 324 km, 54.5° (Epoch: 17 October)

Date Brightness Start Highest point End Pass type
(mag) Time Alt. Az. Time Alt. Az. Time Alt. Az.
21 Oct ? 03:48:52 11° ESE 03:48:52 11° ESE 03:48:58 10° ESE visible
21 Oct ? 05:19:48 11° WSW 05:20:11 11° SW 05:20:56 10° SW visible
27 Oct ? 18:23:24 10° SSW 18:24:03 14° S 18:24:03 14° S visible
28 Oct ? 18:37:26 10° SW 18:38:41 24° SW 18:38:41 24° SW visible
29 Oct ? 17:18:54 10° S 17:20:39 16° SE 17:22:16 11° E visible
29 Oct ? 18:52:05 10° WSW 18:53:10 20° W 18:53:10 20° W visible
30 Oct ? 17:32:26 10° SSW 17:35:01 40° SE 17:36:39 18° ENE visible
30 Oct ? 19:07:11 10° W 19:07:33 12° WNW 19:07:33 12° WNW visible
